Flag for U.S.A. Weather past 2 weeks in Overland Park, Kansas, U.S.A.

Now
44 °F

Light rain. Overcast.


Feels Like: 44 °F
Forecast: 38 / 49 °F
Wind: No wind

Location: Johnson County Executive Airport


UV Index: 0 (Low)

Visibility: 8 mi


Pressure: 30.30 "Hg

Humidity: 60%

Dew point: 31 °F

Location of Overland ParkLocation

Historic Weather in Overland Park

°F

Overland Park temperature yesterday

Maximum temperature yesterday: 62 °F (at 2:53 PM)
Minimum temperature yesterday: 40 °F (at 5:53 AM)
Average temperature yesterday: 52 °F

Past Weeks' High & Low Weather Summary

 TemperatureHumidityPressure
High79 °F (Apr 12, 3:53 PM)100% (Apr 2, 9:53 PM)30.31 "Hg (Apr 2, 9:53 PM)
Low27 °F (Apr 15, 5:53 AM)22% (Apr 9, 1:53 PM)29.40 "Hg (Apr 13, 3:53 PM)
Average51 °F58%29.91 "Hg
* Reported Apr 2 2:53 PM — Apr 17 2:53 PM, Overland Park, Weather by CustomWeather, © 2014

Note: Actual official high and low records may vary slightly from our data, if they occured in-between our weather recording intervals... More about our weather records

Advertising

Historic Weather Conditions — Data for Previous 24 hours

 ConditionsComfort  
Time TempWeatherWind HumidityBarometerVisibility
2:53 PM
Apr 17
44 °FLight rain. Overcast.No wind60%30.30 "Hg8 mi
1:53 PM44 °FOvercast.8 mph60%30.29 "Hg8 mi
12:53 PM43 °FPassing clouds.9 mph62%30.30 "Hg7 mi
11:53 AM42 °FOvercast.7 mph65%30.31 "Hg7 mi
10:53 AM40 °FPartly sunny.8 mph68%30.30 "Hg7 mi
9:53 AM40 °FPartly sunny.9 mph68%30.27 "Hg6 mi
8:53 AM38 °FBroken clouds.12 mph73%30.26 "Hg9 mi
7:55 AM38 °FMostly cloudy.13 mph73%30.24 "Hg10 mi
6:53 AM38 °FClear.13 mph73%30.20 "Hg10 mi
5:53 AM38 °FClear.10 mph73%30.18 "Hg10 mi
4:53 AM38 °FClear.9 mph73%30.17 "Hg10 mi
3:53 AM39 °FClear.9 mph73%30.14 "Hg10 mi
2:53 AM40 °FClear.8 mph70%30.11 "Hg10 mi
1:53 AM41 °FClear.12 mph67%30.10 "Hg10 mi
12:53 AM44 °FClear.14 mph63%30.08 "Hg10 mi
11:53 PM
Apr 16
48 °FClear.14 mph56%30.05 "Hg10 mi
10:53 PM55 °FClear.7 mph42%30.00 "Hg10 mi
9:53 PM54 °FClear.9 mph43%29.96 "Hg10 mi
8:53 PM55 °FSunny.13 mph42%29.91 "Hg10 mi
7:53 PM58 °FSunny.13 mph36%29.90 "Hg10 mi
6:53 PM61 °FSunny.15 mph34%29.88 "Hg10 mi
5:53 PM60 °FSunny.23 mph33%29.88 "Hg10 mi
4:53 PM61 °FSunny.22 mph32%29.87 "Hg10 mi
3:53 PM62 °FSunny.24 mph31%29.87 "Hg10 mi
Weather by CustomWeather, © 2014

See weather overview